x

Halibut Bank (46146) Wave Buoy

6:00am - Wed 16th Apr 2014 All times are PDT. -7 hours from GMT.

  • Sig Wave height 1.3ft
  • Peak Period 3s
  • Wind
    16mph, 18mph gusts
  • Sea Temp 50°f
  • Air Temp 47°f
  • Sea Pressure 1015.6mb
  • Halibut Bank
  • Halibut Bank

More Historic Weather Station data

Upgrade to MSW Pro to gain access to the past 30 days of data for over 8000 Wavebouys and Weather Stations around the globe.

Join Pro

Comparision Forecast

View Surf forecast
   
Wed 04/16 6:00am 1.3ft 3s 16 18 mph 1015.6mb 50f 47f
5:00am 1ft 3s 16 18 mph 1015.6mb 50f 47f
4:00am 1ft 3s 16 18 mph 1016mb 50f 48f
3:00am 1ft 3s 13 18 mph 1016.1mb 50f 48f
2:00am 1.3ft 3s 13 16 mph 1016.5mb 51f 48f
1:00am 1.3ft 3s 16 20 mph 1017mb 51f 48f
12:00am 0.7ft 3s 16 20 mph 1017.3mb 51f 48f
Tue 04/15 11:00pm 0.7ft 3s 9 11 mph 1017.5mb 50f 48f
10:00pm 0.7ft 3s 7 9 mph 1017.7mb 50f 48f
9:00pm 1.3ft 3s 11 13 mph 1017.8mb 50f 49f
8:00pm 1ft 3s 16 20 mph 1017.5mb 50f 51f
7:00pm 1.3ft 3s 16 18 mph 1017.3mb 50f 52f
6:00pm 1ft 3s 16 18 mph 1017.7mb 51f 52f
5:00pm 1.3ft 3s 11 13 mph 1018.7mb 51f 52f
4:00pm 1.3ft 3s 13 18 mph 1019.1mb 51f 51f
3:00pm 1.3ft 3s 16 18 mph 1019.4mb 51f 51f
2:00pm 0.7ft 2s 16 18 mph 1020.1mb 51f 51f
1:00pm 0.3ft 3s 13 16 mph 1020.4mb 51f 50f
12:00pm 0.3ft 6s 9 11 mph 1020.8mb 51f 51f
11:00am 0.7ft 3s 2 4 mph 1020.9mb 50f 50f
10:00am 1ft 4s 2 4 mph 1020.7mb 50f 50f
9:00am 1ft 4s 4 7 mph 1020.1mb 50f 49f
8:00am 1.6ft 4s 9
mph
1019.8mb 50f 50f
7:00am 2ft 4s 13 16 mph 1019.6mb 50f 49f
6:00am 2.5ft 4s 16 18 mph 1019.3mb 50f 50f
5:00am 2.5ft 4s 20 25 mph 1019.1mb 51f 50f
4:00am 2.5ft 4s 20 22 mph 1019.2mb 51f 50f
3:00am 2.5ft 4s 22 25 mph 1018.6mb 51f 51f
2:00am 2.5ft 4s 22 25 mph 1018.4mb 50f 51f
1:00am 2.5ft 4s 22 29 mph 1018.4mb 50f 51f
12:00am 2.5ft 4s 25 29 mph 1017.8mb 51f 52f
Mon 04/14 11:00pm 2ft 4s 20 27 mph 1017.7mb 51f 52f
10:00pm 2ft 4s 20 22 mph 1017.6mb 51f 53f
9:00pm 1ft 3s 18 22 mph 1017.1mb 51f 54f
8:00pm 0.3ft 6s 11 16 mph 1017mb 53f 54f
7:00pm 0.3ft 6s 7 11 mph 1016.5mb 55f 56f
6:00pm 0.3ft 6s 4 7 mph 1017mb 56f 54f
5:00pm 0.3ft 5s  -  2 mph 1017.1mb 55f 56f
4:00pm 0.3ft 6s 2 4 mph 1017.3mb 54f 53f
3:00pm 0.3ft 3s  -  2 mph 1018.2mb 54f 53f
2:00pm 0.3ft 5s  -  2 mph 1018.7mb 53f 53f
1:00pm 0.7ft 2s 4 7 mph 1019mb 52f 52f
12:00pm 0.7ft 3s 9
mph
1019.5mb 52f 51f
11:00am 0.3ft 2s 13 16 mph 1019.7mb 52f 51f
10:00am 0.3ft 6s 9
mph
1019.5mb 51f 50f
9:00am 0.3ft 3s 4 7 mph 1019.8mb 51f 51f
8:00am 0.3ft 14s 4
mph
1019.8mb 51f 49f
7:00am 0.3ft 13s  -  mph 1020.2mb 50f 52f
6:00am 0.3ft 3s 2
mph
1020.3mb 50f 49f
5:00am 0.3ft 2s 2 4 mph 1020.4mb 51f 49f
4:00am 0.3ft 2s 4 7 mph 1020.9mb 51f 49f
3:00am 0.3ft 2s 9
mph
1021.1mb 51f 49f
2:00am 0.3ft 2s 4
mph
1021.6mb 51f 50f
1:00am 0.3ft 2s 7 9 mph 1022.4mb 51f 51f
12:00am 0.3ft 2s 7 11 mph 1022.9mb 52f 53f
Sun 04/13 11:00pm 0.3ft 4s 4 7 mph 1023.1mb 53f 54f
10:00pm 0.3ft 3s 4
mph
1023.3mb 53f 53f
9:00pm 0.3ft 4s  -  mph 1023.7mb 55f 53f
8:00pm 0.3ft 2s  -  mph 1023.5mb 55f 54f
7:00pm 0.3ft 6s 4
mph
1023.8mb 54f 54f
6:00pm 0.3ft 14s  -  2 mph 1024.5mb 55f 56f
5:00pm 0.3ft 6s 2 4 mph 1025mb 55f 55f
4:00pm 0.3ft 3s 2 4 mph 1025.8mb 55f 54f
3:00pm 0.3ft 3s  -  2 mph 1026.7mb 53f 54f
2:00pm 0.3ft 5s  -  2 mph 1027.2mb 55f 53f
1:00pm 0.3ft 3s 2
mph
1027.8mb 53f 52f
12:00pm 0.3ft 4s 2
mph
1028.2mb 52f 51f
11:00am 0.3ft 3s 4
mph
1028.1mb 51f 49f
10:00am 0.3ft 6s 4
mph
1027.8mb 51f 49f
9:00am 0.3ft 2s 7
mph
1027.7mb 51f 49f
8:00am 0.3ft 6s 9
mph
1027.3mb 50f 48f
7:00am 0.3ft 2s 7
mph
1026.7mb 50f 48f
6:00am 0.3ft 2s 2 4 mph 1026mb 49f 48f
5:00am 0.3ft 2s  -  mph 1025.7mb 49f 48f
4:00am 0.3ft 2s 2
mph
1025.3mb 49f 48f
3:00am 0.3ft 2s 2 4 mph 1024.9mb 49f 48f
2:00am 0.3ft 2s 4
mph
1024.6mb 49f 49f
1:00am 0.3ft 2s 4
mph
1024mb 49f 49f
12:00am 0.3ft 2s 13 16 mph 1023.1mb 49f 52f
Sat 04/12 11:00pm 0.7ft 2s 9 13 mph 1022.6mb 50f 52f
10:00pm 0.7ft 3s 9 13 mph 1022mb 50f 53f
9:00pm 1ft 2s 13 16 mph 1021.3mb 50f 54f
8:00pm 1ft 3s 16 18 mph 1020.6mb 50f 53f
7:00pm 1.3ft 3s 11 13 mph 1020.3mb 50f 53f
6:00pm 1.3ft 3s 16 18 mph 1020.2mb 51f 53f
5:00pm 1.3ft 4s 13 16 mph 1020mb 50f 53f
4:00pm 1.6ft 3s 13 16 mph 1020.3mb 51f 53f
3:00pm 1.3ft 3s 13 16 mph 1020.7mb 51f 51f